STARLINK-3150 (49452 NORAD) Tracking and Keplerian Element Data

This shows tracking and keplerian element data for the satellite.

Feedback or suggestion? Click here.




ElementValue
Catalog49452
NameSTARLINK-3150
Epoch Orbit369
Epoch Day15.91668981
Epoch Year2022
RAAN180.2119
Inclination53.2173
Eccentricity0.0001708
Argument of Perigee39.3515
Mean Anonmoly132.6009
Mean Motion15.54894974
Decay Rate-0.00648843
L11 49452U 21104AW 22015.91668981 -.00648843 00000+0 -10341-1 0 9994
L22 49452 53.2173 180.2119 0001708 39.3515 132.6009 15.54894974 3696

Live tracking and technical data element details for STARLINK-3150 (NORAD 49452). STARLINK-3150 can be tracked NOW for your location showing map with azimuth and elevation plus other details from your city location.

Track the satellite on the map from your city or location and see movement details for azimuth, elevation, latitude, longitude, range, height, and movement on the map or in text.







IsCatalogInMostPopularTable: catalog: 49452, numindb: 6
Update: records affected: 1



GetName: 49452 STARLINK-3150

Hit Count: updated at: Thu, 20 Jan 2022 16:54:07 GMT